Simultaneous Nadir Overpasses (SNOs) Predictions

Prediction of SNOs between GOES-15 and METOP-C Satellite Orbit:

Table of predicted SNOs for the next 14.0 days since TLE Epoch: 8/4/2024
Index Date Time (GOES-15) GOES-15 Lat,Lon METOP-C Lat,Lon Distance(km) Time Diff (sec)
1 08/05/2024 05:40:26 -0.05, 61.44 0.85, 57.35 466.22 80
2 08/06/2024 05:22:27 -0.02, 61.47 -0.21, 62.35 99.84 80
3 08/07/2024 17:38:48 0.07, 61.64 -0.78, 57.75 443.25 80
4 08/08/2024 17:20:49 0.04, 61.68 0.29, 62.75 122.93 80
5 08/10/2024 05:37:03 -0.09, 61.61 0.66, 58.17 390.62 80
6 08/11/2024 05:19:03 -0.06, 61.64 -0.42, 63.18 175.22 80
7 08/12/2024 17:35:24 0.10, 61.82 -0.62, 58.59 368.63 80
8 08/13/2024 17:17:24 0.07, 61.86 0.47, 63.59 196.85 80
9 08/15/2024 05:33:38 -0.11, 61.81 0.53, 59.02 317.84 80
10 08/16/2024 05:15:38 -0.09, 61.85 -0.56, 64.02 247.12 80
11 08/17/2024 17:31:58 0.13, 62.04 -0.45, 59.43 298.00 80
